Zurück zum Katalog

STARLINK-30369

AktivKommunikationVLEO
NORAD 57781·PAYLOAD·🇺🇸 United States

Gestartet Sep 4, 2023 von Cape Canaveral Space Force Station

Loading…

Nächste Überflüge (nächste 24 Stunden)

TLE

AktuellSource: CelesTrak SupGP

Epoche: Sep 15, 2026, 02:42 UTC

1 57781C 23134L   26258.11298611 -.00027675  00000+0 -10026-2 0  2580
2 57781  42.9993 204.5940 0000948 268.6571 249.6173 15.27586858    14

Verfolge STARLINK-30369 in Echtzeit mit AllMySat

Download on the App Store